Weather History for Rockford, IL

Change the Weather History Date:

Monday, October 8, 2012

  Actual Average Record
Temperature  
Mean Temperature 46 °F 54 °F  
Max Temperature 62 °F 66 °F 88 °F (1916)
Min Temperature 30 °F 43 °F 24 °F (1987)
Degree Days  
Heating Degree Days 19 11  
Month to date heating degree days 112 79  
Since 1 July heating degree days 258 210  
Cooling Degree Days 0 1  
Month to date cooling degree days 0 8  
Year to date cooling degree days 1221 819  
Moisture  
Dew Point 26 °F    
Average Humidity 50    
Maximum Humidity 75    
Minimum Humidity 25    
Precipitation  
Precipitation 0.00 in 0.09 in 0.52 in (2004)
Month to date precipitation T 0.73  
Year to date precipitation 17.84 29.74  
Snow  
Snow 0.00 in 0.00 in T in (1915)
Month to date snowfall 0.0 0.0  
Since 1 July snowfall 0.0 0.0  
Since 1 September snowfall 0.0 0.0  
Snow Depth 0.00 in    
Sea Level Pressure  
Sea Level Pressure 30.07 in    
Wind  
Wind Speed 13 mph (SSW)    
Max Wind Speed 29 mph    
Max Gust Speed 41 mph    
Visibility 10 miles    
Events      
T = Trace of Precipitation, MM = Missing Value Source: NWS Daily Summary

Daily Weather History Graph

Daily Weather History Graph

Search for Another Location

Airport:

Trip Planner

Search our weather history database for the weather conditions in past years. The results will help you decide how hot, cold, wet, or windy it might be!

Date:

Astronomy

Oct. 08, 2012 Rise Set
Actual Time 7:01 AM CDT 6:25 PM CDT
Civil Twilight 6:33 AM CDT 6:53 PM CDT
Nautical Twilight 6:01 AM CDT 7:25 PM CDT
Astronomical Twilight 5:28 AM CDT 7:58 PM CDT
Moon No Moon Rise 2:21 PM CDT (10/8)
Length of Visible Light 12h 19m
Length of Day
11h 23m
Last Quarter, 46% of the Moon is Illuminated
Oct 8
Last Quarter
Oct 15
New
Oct 21
First Quarter
Oct 29
Full
Nov 6
Last Quarter

Hourly Weather History & Observations

Time (CDT) Temp. Windchill Dew Point Humidity Pressure Visibility Wind Dir Wind Speed Gust Speed Precip Events Conditions
12:54 AM 33.1 °F 28.7 °F 21.0 °F 61% 30.15 in 10.0 mi South 4.6 mph - N/A   Clear
1:54 AM 32.0 °F 27.5 °F 21.9 °F 66% 30.15 in 10.0 mi South 4.6 mph - N/A   Clear
2:54 AM 32.0 °F 28.7 °F 21.9 °F 66% 30.14 in 10.0 mi SSE 3.5 mph - N/A   Clear
3:54 AM 30.9 °F 27.5 °F 21.9 °F 69% 30.13 in 10.0 mi South 3.5 mph - N/A   Clear
4:54 AM 30.9 °F 25.2 °F 21.9 °F 69% 30.13 in 10.0 mi South 5.8 mph - N/A   Clear
5:54 AM 30.9 °F 24.3 °F 21.9 °F 69% 30.14 in 10.0 mi South 6.9 mph - N/A   Clear
6:54 AM 30.0 °F 23.2 °F 23.0 °F 75% 30.14 in 10.0 mi South 6.9 mph - N/A   Clear
7:54 AM 34.0 °F 28.8 °F 27.0 °F 75% 30.14 in 10.0 mi South 5.8 mph - N/A   Clear
8:54 AM 42.1 °F 37.7 °F 28.0 °F 58% 30.15 in 10.0 mi SW 6.9 mph - N/A   Clear
9:54 AM 48.9 °F - 28.0 °F 44% 30.13 in 10.0 mi SSW 12.7 mph - N/A   Clear
10:54 AM 54.0 °F - 28.0 °F 37% 30.11 in 10.0 mi SW 15.0 mph - N/A   Clear
11:54 AM 57.9 °F - 28.0 °F 32% 30.09 in 10.0 mi SSW 24.2 mph 28.8 mph N/A   Partly Cloudy
12:54 PM 59.0 °F - 27.0 °F 29% 30.06 in 10.0 mi SSW 24.2 mph 32.2 mph N/A   Partly Cloudy
1:54 PM 61.0 °F - 26.1 °F 26% 30.03 in 10.0 mi SW 21.9 mph 32.2 mph N/A   Partly Cloudy
2:54 PM 62.1 °F - 27.0 °F 26% 30.00 in 10.0 mi SSW 26.5 mph 34.5 mph N/A   Partly Cloudy
3:54 PM 61.0 °F - 27.0 °F 27% 29.99 in 10.0 mi SSW 19.6 mph 33.4 mph N/A   Partly Cloudy
4:54 PM 61.0 °F - 27.0 °F 27% 29.98 in 10.0 mi SSW 23.0 mph 28.8 mph N/A   Partly Cloudy
5:54 PM 57.9 °F - 27.0 °F 31% 29.98 in 10.0 mi SSW 13.8 mph - N/A   Scattered Clouds
6:54 PM 55.0 °F - 28.0 °F 35% 30.00 in 10.0 mi South 11.5 mph - N/A   Scattered Clouds
7:54 PM 53.1 °F - 28.9 °F 40% 30.00 in 10.0 mi South 16.1 mph 23.0 mph N/A   Scattered Clouds
8:54 PM 53.1 °F - 28.9 °F 40% 30.00 in 10.0 mi South 15.0 mph - N/A   Mostly Cloudy
9:54 PM 51.1 °F - 30.0 °F 44% 30.00 in 10.0 mi South 13.8 mph - N/A   Mostly Cloudy
10:54 PM 50.0 °F - 30.9 °F 48% 29.99 in 10.0 mi South 15.0 mph - N/A   Mostly Cloudy
11:54 PM 50.0 °F - 32.0 °F 50% 29.97 in 10.0 mi South 13.8 mph - N/A   Mostly Cloudy